Regional Weather Roundup
Issued by NWS

Home | Current Version | Previous Version | Graphics & Text | Print | Product List | Glossary On
Versions: 1 2 3 4 5 6 7 8 9 10 11 12 13 14 15 16 17 18 19 20 21 22 23 24 25 26 27 28 29 30 31 32 33 34 35 36 37 38 39 40 41 42 43 44 45 46 47 48 49 50
000
ASUS43 KIND 170709
RWRIN

WEATHER ROUNDUP FOR INDIANA
NATIONAL WEATHER SERVICE INDIANAPOLIS IN
200 AM EST SUN DEC 17 2017

NOTE: "FAIR" INDICATES FEW OR NO CLOUDS BELOW 12,000 FEET WITH NO
SIGNIFICANT WEATHER AND/OR OBSTRUCTIONS TO VISIBILITY.

* - STATION DOES NOT REPORT WEATHER SUCH AS PRECIPITATION OR FOG.

+ - STATION NOT QUALITY CONTROLLED BY THE NATIONAL WEATHER SERVICE.
    USE DATA WITH CAUTION...ESPECIALLY DEWPOINT AND RELATIVE
    HUMIDITY OBSERVATIONS.

INZ001>003-010>013-019-020-170800-
NORTHWEST INDIANA

CITY           SKY/WX    TMP DP  RH WIND       PRES   REMARKS
GARY /AIRPORT/ CLOUDY    28  26  93 CALM      30.06S
KNOX *+        CLOUDY    30  28  93 CALM      30.07R
LA PORTE +     CLOUDY    21  19  93 CALM      30.07R
MICHIGAN CITY+ CLOUDY    27  27 100 CALM      30.07R
MONTICELLO +   PTCLDY    35  27  74 S3        30.05F
RENSSELAER +   CLOUDY    32  27  80 CALM      30.06F
VALPARAISO     CLOUDY    33  26  75 CALM      30.06S

$$

LMZ046-743>745-170800-
SOUTHERN LAKE MICHIGAN

STATION/POSITION TIME  TEMP    WIND        PRES    WAVE
                       AIR SEA DIR/SP/G            HT
                 (UTC) (F)     (DEG/KT/KT) (MB)    (FT)
BURNS HARBOR     0640   37     190/  5/  6 1018.3S

$$

INZ004-005-014>016-021>024-170800-
NORTH CENTRAL INDIANA

CITY           SKY/WX    TMP DP  RH WIND       PRES   REMARKS
GOSHEN         CLOUDY    29  24  82 SE5       30.07F WCI  24
LOGANSPORT +   CLOUDY    32  27  80 CALM      30.07F
PERU/GRISSOM   CLOUDY    32  28  83 S6        30.06F WCI  27
ROCHESTER +    CLOUDY    34  30  86 CALM      30.07S
SOUTH BEND     CLOUDY    27  26  96 SE5       30.07S WCI  22
WARSAW +       CLOUDY    34  28  80 CALM      30.07F

$$

INZ006>009-017-018-025>027-170800-
NORTHEAST INDIANA

CITY           SKY/WX    TMP DP  RH WIND       PRES   REMARKS
AUBURN +       CLOUDY    28  25  86 E6        30.10F FOG     WCI  22
FORT WAYNE     CLOUDY    27  24  89 E5        30.10S WCI  22
HUNTINGTON +   CLOUDY    31  26  82 CALM      30.08F

$$

INZ028-029-035-036-043>045-051>053-170800-
WEST CENTRAL INDIANA

CITY           SKY/WX    TMP DP  RH WIND       PRES   REMARKS
CRAWFORDSVL +  CLOUDY    35  28  76 S8        30.08F WCI  28
GREENCASTLE +  CLOUDY    39  28  65 SW5       30.09F WCI  36
LAFAYETTE      PTCLDY    37  29  72 SW5       30.08S WCI  33
TERRE HAUTE    PTCLDY    38  28  67 S7        30.10F WCI  33

$$

INZ030>032-037>040-046>048-054>057-064-065-170800-
CENTRAL INDIANA

CITY           SKY/WX    TMP DP  RH WIND       PRES   REMARKS
FRANKFORT +    CLOUDY    36  30  77 SW7       30.09S WCI  31
GREENWOOD *+   CLOUDY    37  30  76 S6        30.11F WCI  32
INDIANAPOLIS   CLOUDY    37  28  70 SW7       30.10F WCI  32
-EAGLE CREEK   PTCLDY    40  28  62 S5        30.09F WCI  37
KOKOMO +       CLOUDY    32  26  78 S8        30.08F WCI  25
MARION +       CLOUDY    32  27  80 S6        30.09F WCI  26
MT COMFORT *+  CLOUDY    34  30  86 S6        30.11S WCI  29
SHELBYVILLE    CLOUDY    37  27  67 S7        30.12F WCI  32
ZIONSVILLE +   CLOUDY    36  28  72 S9        30.10S WCI  29

$$

INZ033-034-041-042-049-050-058-059-170800-
EAST CENTRAL INDIANA

CITY           SKY/WX    TMP DP  RH WIND       PRES   REMARKS
MUNCIE         CLOUDY    37  27  67 S9        30.09F WCI  30
RICHMOND +     PTCLDY    28  27  93 S8        30.13F WCI  20

$$

INZ060-061-067>069-081>083-085>088-170800-
SOUTHWEST INDIANA

CITY           SKY/WX    TMP DP  RH WIND       PRES   REMARKS
EVANSVILLE     PTCLDY    40  31  70 S7        30.16F WCI  35
HUNTINGBURG +  PTCLDY    40  31  70 S7        30.16F WCI  35
WASHINGTON +   CLOUDY    38  28  68 S8        30.14S WCI  32

$$

INZ062-063-066-070>080-084-089>092-170800-
SOUTH CENTRAL AND SOUTHEAST INDIANA

CITY           SKY/WX    TMP DP  RH WIND       PRES   REMARKS
BEDFORD +      CLOUDY    39  28  65 S7        30.14F WCI  34
BLOOMINGTON    PTCLDY    42  28  57 SW9       30.12F
MADISON *+     CLOUDY    36  28  75 S5        30.18F WCI  32
NORTH VERNON + MOCLDY    36  27  69 S5        30.15F WCI  32
SEYMOUR +      PTCLDY    36  27  69 S6        30.15F WCI  31

$$




USA.gov is the U.S. government's official web portal to all federal, state and local government web resources and services.